Location: Cañada de la Miga
(34.7595°N, 106.2317°W)
Time: 12:05:09
(UTC+00:00)

A-11 Canister half - Pass Details

Date: 07 December 2021
Orbit: 1516 x 1684 km, 47.2° (Epoch: 26 January)

Event Time Altitude Azimuth Distance (km) Brightness Sun altitude
Rises 11:51:48 0° 218° (SW) 4,683 11.3 -25.5°
Reaches altitude 10° 11:54:50 10° 215° (SW) 3,720 10.8 -24.9°
Maximum altitude 12:04:06 63° 137° (SE) 1,737 9.4 -23.0°
Drops below altitude 10° 12:13:43 10° 59° (ENE) 3,862 11.7 -21.1°
Sets 12:16:56 0° 56° (ENE) 4,872 12.3 -20.5°
